Location: Clarks Summit,Pa.
(41.5000°N, 75.6000°W)
Time: 18:13:30
(UTC-04:00)

Envisat - Visible Passes

Search period start: 19 April 2024 00:00
Search period end: 29 April 2024 00:00
Orbit: 762 x 764 km, 98.3° (Epoch: 19 April)

Date Brightness Start Highest point End Pass type
(mag) Time Alt. Az. Time Alt. Az. Time Alt. Az.
19 Apr 3.8 03:58:42 10° NNE 04:03:35 46° E 04:06:43 21° SSE visible
19 Apr 4.3 05:38:24 10° NNW 05:42:13 22° WNW 05:46:02 10° WSW visible
20 Apr 5.1 03:22:14 10° NE 03:26:01 21° E 03:29:03 13° SE visible
20 Apr 3.4 05:00:21 10° N 05:05:12 46° WNW 05:09:13 14° SW visible
21 Apr 3.0 04:22:51 10° NNE 04:27:58 80° ESE 04:31:33 20° S visible
22 Apr 4.3 03:45:53 10° NNE 03:50:31 35° E 03:53:52 17° SSE visible
22 Apr 4.0 05:25:04 10° N 05:29:21 28° WNW 05:33:36 10° SW visible
23 Apr 5.4 03:09:52 10° NE 03:12:53 16° E 03:15:53 10° SE visible
23 Apr 3.1 04:47:14 10° N 04:52:15 61° WNW 04:56:22 15° SSW visible
24 Apr 3.4 04:09:54 10° NNE 04:14:56 60° E 04:18:41 18° S visible
25 Apr 4.8 03:33:10 10° NE 03:37:26 27° E 03:41:00 13° SSE visible
25 Apr 3.7 05:11:49 10° N 05:16:26 36° WNW 05:21:02 10° SW visible
26 Apr 5.6 02:58:02 10° ENE 02:59:43 11° E 03:01:23 10° ESE visible
26 Apr 2.9 04:34:10 10° N 04:39:16 80° WNW 04:43:28 15° SSW visible
27 Apr 3.9 03:57:00 10° NNE 04:01:53 45° E 04:05:47 15° SSE visible
28 Apr 5.1 03:20:34 10° NE 03:24:18 20° E 03:28:00 10° SE visible
28 Apr 3.4 04:58:38 10° N 05:03:30 47° WNW 05:08:15 10° SW visible
